Other Public Products
Issued by NWS Grand Forks, ND

Home | Current Version | Previous Version | Graphics & Text | Print | Product List | Glossary On
Versions: 1 2 3 4 5 6 7 8 9 10 11 12 13 14 15 16 17 18 19 20 21 22 23 24 25 26 27 28 29 30 31 32 33 34 35 36 37 38 39 40 41 42 43 44 45 46 47 48 49 50
531
FPUS83 KFGF 242131
OPUFGF
PRAIRIE TO PINES WEATHER ROUNDUP
NATIONAL WEATHER SERVICE EASTERN NORTH DAKOTA/GRAND FORKS ND
400 PM CDT SAT JUN 24 2017

 **SATELLITE DATA USED TO AUGMENT SKY COVER AT AUTOMATED STATIONS**
 *****  WEATHER ACROSS EASTERN NORTH DAKOTA  *****

CITY           SKY/WX    TMP DP  RH WIND       PRES   REMARKS
GRAND FORKS    CLOUDY    56  51  84 NW20G29   30.07R
GRAND FORKS AF LGT RAIN  54  50  87 N15       30.10R FOG
GRAND CITY NWS NOT AVBL
BUXTON           N/A     56  51  83 NW17        N/A
DEVILS LAKE    CLOUDY    54  40  59 N22G28    30.16R
FARGO          CLOUDY    59  51  75 NW16G26   30.08R
WAHPETON ARPT  CLOUDY    61  41  48 NW15G22   30.09S
$$

 *****  WEATHER ACROSS CENTRAL AND WESTERN NORTH DAKOTA  *****

CITY           SKY/WX    TMP DP  RH WIND       PRES   REMARKS
JAMESTOWN      CLOUDY    55  45  68 NW24G30   30.15R
BISMARCK       CLOUDY    63  40  42 NW16G23   30.23S
MINOT          CLOUDY    59  40  49 NW17G26   30.23R
MINOT AFB      CLOUDY    58  40  51 N18       30.22R
GARRISON         N/A     59  40  49 N17       30.23R
WILLISTON      FAIR      69  34  27 N13G28    30.28S
DICKINSON      FAIR      64  30  27 N21G30    30.25S
HETTINGER      FAIR      70  30  22 NW18G32   30.26S
$$

 *****  OTHER OBSERVATIONS NORTHEAST NORTH DAKOTA  *****

CITY           SKY/WX    TMP DP  RH WIND       PRES   REMARKS
WALHALLA       NOT AVBL
LANGDON        CLOUDY    52  46  82 N23G30    30.14R
CAVALIER       NOT AVBL
GRAFTON        DRIZZLE   52  52 100 N21G30    30.11R
CANDO          NOT AVBL
FORT TOTTEN      N/A     55  47  73 NW8       29.95S
ROLLA            N/A     54  45  71 N17       30.18S
RUGBY          NOT AVBL
 ***** THE ABOVE OBSERVATIONS ARE NON NWS ARE NOT QUALITY
        CONTROLLED AND MAY MIS-REPORT RAIN FOR SNOW...
$$

 *****  OTHER OBSERVATIONS SOUTHEAST NORTH DAKOTA *****

CITY           SKY/WX    TMP DP  RH WIND       PRES   REMARKS
COOPERSTOWN    CLOUDY    57  45  62 NW26G35   30.12R
VALLEY CITY    CLOUDY    59  48  67 NW18G28   30.13S
OAKES          NOT AVBL
GWINNER        CLOUDY    59  45  58 NW18      30.13R
SHEYENNE NWR     N/A     61  44  54 NW13      29.95S
BUFFALO          N/A     59  44  55 N21         N/A
WYNDMERE       NOT AVBL
 ***** THE ABOVE OBSERVATIONS ARE NON NWS ARE NOT QUALITY
       CONTROLLED AND MAY MIS-REPORT RAIN FOR SNOW...
$$

  *****  WEATHER ACROSS NORTHERN MINNESOTA  *****

CITY           SKY/WX    TMP DP  RH WIND       PRES   REMARKS
FLAG ISLAND    PTSUNNY   61  48  63 CALM      29.98R
WARROAD        FAIR      59  54  82 W6        30.00S
ROSEAU         FAIR      61  52  72 NW3       30.00R
HALLOCK        CLOUDY    52  52 100 NW20G26   30.05R FOG
THF RVR FALLS  CLOUDY    54  52  94 NW17      30.04R
HALSTAD          N/A     56  50  81 NW14        N/A
FOSSTON        DRIZZLE   55  52  88 W14G22    30.03F
BAUDETTE       CLOUDY    61  51  70 N9        29.98R
WASKISH        CLOUDY    61  48  63 W10       29.99R
CROOKSTON      CLOUDY    54  52  94 NW22G32   30.06R
$$
  *****  WEATHER ACROSS CENTRAL AND WEST MINNESOTA  *****

CITY           SKY/WX    TMP DP  RH WIND       PRES   REMARKS
BEMIDJI        CLOUDY    62  46  55 W15G21    30.01S
PARK RAPIDS    FAIR      63  42  46 NW17G26   30.01S
WADENA         FAIR      59  46  63 NW15G24   30.04R
DETROIT LAKES  PTSUNNY   55  48  76 NW16G25   30.07S
MOORHEAD       PTSUNNY   55  52  88 NW15      30.08F HAZE
FERGUS FALLS   CLOUDY    61  46  59 NW17G23   30.06S
ELBOW LAKE     CLOUDY    59  45  58 W14G25    30.08S
MORRIS MN      FAIR      64  43  45 NW21      30.07S
STAPLES        PTSUNNY   57  45  62 NW10      30.03S
WHEATON        FAIR      64  41  42 W20G25    30.10S
$$
  *****  WEATHER ELSEWHERE ACROSS MINNESOTA  *****

CITY           SKY/WX    TMP DP  RH WIND       PRES   REMARKS
DULUTH         PTSUNNY   60  45  57 NW12G21   29.95S
INTRNTL FALLS  PTSUNNY   62  47  57 VRB7      29.94R
ELY            CLOUDY    59  45  58 W9G18     29.92S
CLOQUET        LGT RAIN  55  48  76 W7        29.97R
BRAINERD       FAIR      60  44  55 NW14      30.01R
HIBBING        PTSUNNY   58  47  66 W7        29.96S
ALEXANDRIA     PTSUNNY   62  46  55 W14G25    30.07S
SAINT CLOUD    PTSUNNY   64  45  49 NW12G18   30.01F
MINNEAPOLIS    PTSUNNY   62  44  51 NW16      30.02F
$$

  *****  WEATHER ACROSS SOUTH DAKOTA  *****

CITY           SKY/WX    TMP DP  RH WIND       PRES   REMARKS
SIOUX FALLS    FAIR      69  42  37 NW26G33   30.12R
BROOKINGS      PTSUNNY   64  41  42 NW21      30.13S
WATERTOWN      FAIR      62  41  46 NW17G25   30.13S
HURON          PTSUNNY   69  41  36 NW21G31   30.14S
SISSETON         N/A     65  42  43 NW22G30   30.10R
ABERDEEN       FAIR      65  41  41 NW18G30   30.15F
MITCHELL       FAIR      75  32  20 NW23G37   30.14F
PIERRE         FAIR      72  33  24 NW23G35   30.18R
MOBRIDGE       FAIR      68  35  29 NW20G31   30.18R
RAPID CITY     FAIR      75  31  19 N18G31    30.26S
$$

  *****  SOME WEATHER IN NEARBY STATES *****

CITY           SKY/WX    TMP DP  RH WIND       PRES   REMARKS
GLASGOW MT     PTSUNNY   71  31  22 N6        30.28F
GREAT FALLS MT FAIR      72  35  25 CALM      30.30F
CHEYENNE WY    PTSUNNY   69  38  32 VRB7      30.34F
SCOTTSBLUFF NE FAIR      76  35  22 MISG      30.28F
OMAHA NE       FAIR      79  36  21 W20       30.13F
DES MOINES IA  PTSUNNY   74  41  30 W15       30.10F
DAVENPORT IA   FAIR      72  43  35 NW21      30.08F
CHICAGO IL     FAIR      73  44  35 W20G29    29.99S
EAU CLAIRE WI  CLOUDY    61  42  49 NW15G23   29.97S
LA CROSSE WI   LGT RAIN  63  50  62 SW15G26   30.02R
$$

  *****  SOME NATIONAL WEATHER *****

CITY           SKY/WX    TMP DP  RH WIND       PRES   REMARKS
LA GUARDIA NY  PTSUNNY   85  53  33 NW21G26   29.77R
RALEIGH NC     PTSUNNY   88  71  57 SW6       29.90F HX  94
ATLANTA GA     PTSUNNY   78  75  90 W6        30.01S
NEW ORLEANS LA LGT RAIN  77  75  93 W8        30.05R
OKLAHOMA CITY  FAIR      84  47  27 E12G23    30.16F
ALBUQUERQUE NM PTSUNNY   87  52  29 SW6G21    30.16F
SALT LAKE CITY FAIR      88  36  15 N10       30.17F
LOS ANGELES CA PTSUNNY   70  61  73 W13       29.90S
BOISE ID       FAIR      84  37  18 W9        30.15F
SEATTLE WA     FAIR      85  56  37 N13       30.09F
$$

*** WEATHER ACROSS MANITOBA...SASKATCHEWAN AND ONTARIO ***
                ***ONTARIO***

CITY           SKY/WX    TMP DP  RH WIND       PRES   REMARKS
GERALDTON      PTSUNNY   66  43  42 N3        29.88R
THUNDER BAY    PTSUNNY   63  52  67 W7        29.88R
SIOUX LOOKOUT  LGT RAIN  57  54  88 NW6       29.92S
TORONTO        MOSUNNY   75  50  41 NW18G28   29.82R
BIG TROUT LK   PTSUNNY   55  37  50 N9        30.03S
PICKLE LAKE    PTSUNNY   61  43  51 N12       29.94R
DRYDEN         CLOUDY    57  54  88 W14       29.94R
KENORA         PTSUNNY   59  52  77 NE10      29.99R
$$
                *** MANITOBA***

CITY           SKY/WX    TMP DP  RH WIND       PRES   REMARKS
BRANDON        CLOUDY    57  43  58 NW15      30.18R
DAUPHIN        CLOUDY    57  46  67 N10G20    30.20S
ISLAND LAKE    CLOUDY    59  37  44 N12       30.09S
PILOT MOUND      N/A     50  43  76 N16G24      N/A
THE PAS        PTSUNNY   55  45  67 W7        30.21S
THOMPSON       PTSUNNY   61  36  39 NW10G18   30.11S
WINNIPEG       LGT RAIN  54  48  82 N13       30.10R
LYNN LAKE      CLOUDY    61  32  33 N13G18    30.16S
CHURCHILL      MOSUNNY   57  28  33 N6        30.08F
GILLAM         PTSUNNY   61  41  48 W9        30.06F
$$
                ***SASKATCHEWAN***

CITY           SKY/WX    TMP DP  RH WIND       PRES   REMARKS
ESTEVAN        PTSUNNY   63  41  45 N15G26    30.26S
KINDERSLEY     PTSUNNY   70  41  35 W10       30.25F
LLOYDMINSTER   PTSUNNY   68  43  40 NW8       30.23S
PRINCE ALBERT  MOSUNNY   64  37  36 NW9       30.23F
REGINA         MOSUNNY   68  39  34 NW13G22   30.25F
YORKTON        LGT RAIN  55  45  67 N14G21    30.23F



USA.gov is the U.S. government's official web portal to all federal, state and local government web resources and services.